Weather History for Saskatoon, SK

Change the Weather History Date:

Friday, November 9, 2012

  Actual Average Record
Temperature  
Mean Temperature 14 °F -  
Max Temperature 19 °F 25 °F 50 °F (2001)
Min Temperature 8 °F 8 °F -9 °F (2006)
Degree Days  
Heating Degree Days 52    
Moisture  
Dew Point 7 °F    
Average Humidity 82    
Maximum Humidity 92    
Minimum Humidity 73    
Precipitation  
Precipitation 0.00 in 0.02 in - ()
Sea Level Pressure  
Sea Level Pressure 30.43 in    
Wind  
Wind Speed 16 mph ()    
Max Wind Speed 24 mph    
Max Gust Speed 30 mph    
Visibility 9.6 miles    
Events Snow    
Averages and records for this station are not official NWS values.
T = Trace of Precipitation, MM = Missing Value Source: Averaged Metar Reports

Daily Weather History Graph

Daily Weather History Graph

Search for Another Location

Airport:

Trip Planner

Search our weather history database for the weather conditions in past years. The results will help you decide how hot, cold, wet, or windy it might be!

Date:

Astronomy

Nov. 09, 2012 Rise Set
Actual Time 8:17 AM CST 5:22 PM CST
Civil Twilight 7:40 AM CST 5:59 PM CST
Nautical Twilight 6:59 AM CST 6:40 PM CST
Astronomical Twilight 6:20 AM CST 7:20 PM CST
Moon 2:45 AM CST (11/9) 3:07 PM CST (11/9)
Length of Visible Light 10h 19m
Length of Day
9h 05m
Waning Crescent, 23% of the Moon is Illuminated
Nov 9
Waning Crescent
Nov 13
New
Nov 20
First Quarter
Nov 28
Full
Dec 6
Last Quarter

Hourly Weather History & Observations

Time (CST) Temp. Windchill Dew Point Humidity Pressure Visibility Wind Dir Wind Speed Gust Speed Precip Events Conditions
12:00 AM 19.4 °F 5.0 °F 14.0 °F 80% 30.46 in 15.0 mi ENE 16.1 mph 21.9 mph N/A Snow Light Snow
1:00 AM 19.4 °F 4.5 °F 12.2 °F 74% 30.47 in 15.0 mi ENE 17.3 mph - N/A Snow Light Snow
1:05 AM 19.4 °F 4.1 °F 14.0 °F 80% 30.46 in 15.0 mi East 18.4 mph 24.2 mph N/A Snow Light Snow
2:00 AM 17.6 °F 2.7 °F 12.2 °F 79% 30.46 in 10.0 mi East 16.1 mph 23.0 mph N/A Snow Light Snow
2:05 AM 17.6 °F 2.2 °F 12.2 °F 79% 30.46 in 15.0 mi East 17.3 mph - N/A   Overcast
3:00 AM 15.8 °F 2.7 °F 8.6 °F 73% 30.46 in 15.0 mi ENE 11.5 mph 17.3 mph N/A   Mostly Cloudy
4:00 AM 14.0 °F -2.0 °F 8.6 °F 79% 30.46 in 15.0 mi ENE 16.1 mph - N/A   Mostly Cloudy
5:00 AM 12.2 °F -5.3 °F 8.6 °F 85% 30.45 in 15.0 mi ENE 18.4 mph - N/A   Overcast
6:00 AM 10.4 °F -7.2 °F 6.8 °F 85% 30.48 in 15.0 mi ENE 17.3 mph 23.0 mph N/A   Overcast
7:00 AM 10.4 °F -7.7 °F 5.0 °F 79% 30.46 in 15.0 mi ENE 18.4 mph - N/A   Mostly Cloudy
8:00 AM 8.6 °F -9.5 °F 5.0 °F 85% 30.45 in 15.0 mi ENE 17.3 mph 24.2 mph N/A   Mostly Cloudy
9:00 AM 8.6 °F -8.9 °F 5.0 °F 85% 30.46 in 15.0 mi ENE 16.1 mph 24.2 mph N/A   Overcast
10:00 AM 8.6 °F -10.5 °F 5.0 °F 85% 30.46 in 15.0 mi East 19.6 mph 26.5 mph N/A   Overcast
11:00 AM 10.4 °F -7.7 °F 5.0 °F 79% 30.47 in 15.0 mi ENE 18.4 mph 24.2 mph N/A   Overcast
12:00 PM 10.4 °F -8.6 °F 5.0 °F 79% 30.47 in 15.0 mi East 20.7 mph - N/A   Overcast
1:00 PM 8.6 °F -11.0 °F 5.0 °F 85% 30.45 in 15.0 mi ENE 20.7 mph 26.5 mph N/A   Overcast
2:00 PM 10.4 °F -6.6 °F 5.0 °F 79% 30.43 in 15.0 mi ENE 16.1 mph 21.9 mph N/A   Overcast
3:00 PM 10.4 °F -7.2 °F 5.0 °F 79% 30.41 in 15.0 mi ENE 17.3 mph 25.3 mph N/A   Overcast
3:32 PM 10.4 °F -8.6 °F 5.0 °F 79% 30.40 in 6.0 mi ENE 20.7 mph 28.8 mph N/A Snow Light Snow
3:40 PM 10.4 °F -8.6 °F 5.0 °F 79% 30.40 in 1.0 mi ENE 20.7 mph 28.8 mph N/A Snow Light Snow
4:00 PM 10.4 °F -8.6 °F 5.0 °F 79% 30.40 in 1.0 mi ENE 20.7 mph 27.6 mph N/A Snow Light Snow
5:00 PM 8.6 °F -12.3 °F 5.0 °F 85% 30.39 in 0.8 mi ENE 24.2 mph - N/A Snow Light Snow
5:10 PM 8.6 °F -11.4 °F 5.0 °F 85% 30.38 in 0.5 mi ENE 21.9 mph 29.9 mph N/A Snow Snow
6:00 PM 8.6 °F -11.0 °F 5.0 °F 85% 30.39 in 0.5 mi ENE 20.7 mph 26.5 mph N/A Snow Snow
7:00 PM 8.6 °F -8.3 °F 5.0 °F 85% 30.40 in 0.5 mi ENE 15.0 mph 21.9 mph N/A Snow Snow
8:00 PM 8.6 °F -9.5 °F 5.0 °F 85% 30.40 in 0.5 mi ENE 17.3 mph - N/A Snow Snow
9:00 PM 8.6 °F -8.9 °F 5.0 °F 85% 30.39 in 0.5 mi ENE 16.1 mph - N/A Snow Snow
10:00 PM 8.6 °F -7.7 °F 5.0 °F 85% 30.39 in 0.8 mi ENE 13.8 mph 21.9 mph N/A Snow Light Snow
11:00 PM 8.6 °F -8.3 °F 6.8 °F 92% 30.38 in 1.0 mi ENE 15.0 mph 25.3 mph N/A Snow Light Snow